Time,TemperatureF,DewpointF,PressureIn,WindDirection,WindDirectionDegrees,WindSpeedMPH,WindSpeedGustMPH,Humidity,HourlyPrecipIn,Conditions,Clouds,dailyrainin,SoftwareType,DateUTC
2015-01-27 00:23:00,39.0,33.0,29.82,North,359,0.0,0.0,78,0.00,,,0.02,,2015-01-27 05:23:00,
2015-01-27 00:53:00,38.0,32.0,29.82,North,359,0.0,0.0,79,0.00,,,0.02,,2015-01-27 05:53:00,
2015-01-27 01:23:00,37.0,33.0,29.81,North,359,0.0,0.0,84,0.00,,,0.02,,2015-01-27 06:23:00,
2015-01-27 01:53:00,36.0,32.0,29.82,North,359,0.0,0.0,85,0.00,,,0.02,,2015-01-27 06:53:00,
2015-01-27 02:22:00,35.0,31.0,29.83,North,359,0.0,0.0,85,0.00,,,0.02,,2015-01-27 07:22:00,
2015-01-27 02:53:00,35.0,31.0,29.84,North,359,0.0,0.0,86,0.00,,,0.02,,2015-01-27 07:53:00,
2015-01-27 03:12:00,34.0,31.0,29.84,North,359,0.0,0.0,87,0.00,,,0.02,,2015-01-27 08:12:00,
2015-01-27 03:22:00,34.0,31.0,29.84,North,359,0.0,0.0,88,0.00,,,0.02,,2015-01-27 08:22:00,
2015-01-27 03:53:00,33.0,30.0,29.84,North,359,0.0,0.0,89,0.00,,,0.02,,2015-01-27 08:53:00,
2015-01-27 04:23:00,32.0,29.0,29.84,North,359,0.0,0.0,89,0.00,,,0.02,,2015-01-27 09:23:00,
2015-01-27 04:54:00,32.0,30.0,29.85,North,359,0.0,0.0,91,0.00,,,0.02,,2015-01-27 09:54:00,
2015-01-27 05:24:00,31.0,29.0,29.85,North,359,0.0,0.0,91,0.00,,,0.02,,2015-01-27 10:24:00,
2015-01-27 05:54:00,31.0,29.0,29.86,North,359,0.0,0.0,92,0.00,,,0.02,,2015-01-27 10:54:00,
2015-01-27 06:23:00,30.0,28.0,29.87,North,359,0.0,0.0,93,0.00,,,0.02,,2015-01-27 11:23:00,
2015-01-27 06:53:00,30.0,27.0,29.88,North,359,0.0,0.0,90,0.00,,,0.02,,2015-01-27 11:53:00,
2015-01-27 07:23:00,30.0,27.0,29.90,North,359,0.0,0.0,89,0.00,,,0.02,,2015-01-27 12:23:00,
2015-01-27 07:53:00,29.0,26.0,29.91,North,359,0.0,0.0,89,0.00,,,0.02,,2015-01-27 12:53:00,
2015-01-27 08:22:00,29.0,26.0,29.93,North,359,0.0,0.0,90,0.00,,,0.02,,2015-01-27 13:22:00,
2015-01-27 08:52:00,31.0,26.0,29.93,North,359,0.0,0.0,83,0.00,,,0.02,,2015-01-27 13:52:00,
2015-01-27 09:22:00,32.0,26.0,29.93,North,359,0.0,0.0,77,0.00,,,0.02,,2015-01-27 14:22:00,
2015-01-27 09:53:00,34.0,27.0,29.94,North,359,0.0,0.0,75,0.00,,,0.02,,2015-01-27 14:53:00,
2015-01-27 10:22:00,35.0,27.0,29.94,North,359,0.0,0.0,71,0.00,,,0.02,,2015-01-27 15:22:00,
2015-01-27 10:55:00,37.0,25.0,29.94,North,359,0.0,0.0,62,0.00,,,0.02,,2015-01-27 15:55:00,
2015-01-27 11:23:00,39.0,26.0,29.94,North,359,0.0,0.0,60,0.00,,,0.02,,2015-01-27 16:23:00,
2015-01-27 11:54:00,40.0,26.0,29.94,North,359,0.0,0.0,58,0.00,,,0.02,,2015-01-27 16:54:00,
2015-01-27 12:23:00,42.0,27.0,29.92,North,359,0.0,0.0,54,0.00,,,0.02,,2015-01-27 17:23:00,
2015-01-27 12:53:00,43.0,25.0,29.91,North,359,0.0,0.0,49,0.00,,,0.02,,2015-01-27 17:53:00,
2015-01-27 13:22:00,43.0,25.0,29.90,North,359,0.0,0.0,48,0.00,,,0.02,,2015-01-27 18:22:00,
2015-01-27 13:54:00,44.0,25.0,29.90,North,359,0.0,0.0,46,0.00,,,0.02,,2015-01-27 18:54:00,
2015-01-27 14:23:00,44.0,23.0,29.89,North,359,0.0,0.0,44,0.00,,,0.02,,2015-01-27 19:23:00,